Wind_Speed
24 31 26 22 24 35 35 31 35 37 39 35 34 31 33 35 35 34 31 28 29 32 32 30 27 26 25 26 25 24 25 26
24 20 19 16 16 29 36 34 32 37 39 36 35 32 32 34 35 35 34 31 32 32 29 27 26 24 23 23 23 22 23 24
23 12 17 16 16 27 30 30 31 36 38 37 34 32 33 36 35 35 32 31 29 28 27 25 24 23 20 20 21 21 22 23
24 19 24 26 38 41 32 30 33 35 38 35 35 34 34 35 34 34 32 31 28 27 28 27 25 23 20 18 18 20 20 21
29 29 35 41 34 43 37 30 29 30 38 35 36 35 33 33 34 35 32 29 28 25 25 24 23 21 18 17 17 18 19 19
27 35 38 37 36 37 40 34 29 33 35 36 37 35 34 33 32 32 33 27 24 24 23 21 20 18 16 16 15 16 17 17
31 36 32 42 35 37 40 36 30 33 39 38 38 36 34 32 31 29 28 25 22 22 21 19 18 18 15 13 12 13 13 14
29 35 32 34 33 39 39 40 34 29 32 34 39 37 35 32 29 27 25 21 20 20 18 18 17 14 13 12 12 11 11 10
27 30 35 35 33 37 38 37 37 40 33 32 37 38 34 32 29 27 24 21 20 19 18 16 15 14 13 12 12 11 9 8
21 28 35 33 33 33 32 33 33 37 38 37 39 38 34 30 27 25 24 20 19 17 15 15 14 13 13 14 13 10 8 7
23 22 32 33 32 33 34 34 32 31 37 40 39 37 33 28 25 24 23 21 19 18 16 14 15 14 14 13 11 10 9 7
13 16 30 35 34 31 29 36 34 33 36 39 39 37 30 25 23 23 21 22 20 19 17 17 17 16 14 12 12 13 13 12
10 17 25 32 34 32 30 34 31 29 33 37 32 30 23 24 23 20 23 24 20 20 20 20 17 18 13 10 12 14 16 17
12 19 28 31 35 24 26 29 36 31 23 31 29 27 23 24 22 18 23 25 19 22 23 22 20 19 9 4 1 7 21 23
17 20 23 27 29 25 21 24 32 31 21 27 28 28 21 17 20 18 20 17 18 21 24 25 23 22 22 9 2 4 2 11
19 21 24 29 31 32 30 22 30 28 27 24 29 36 30 21 17 15 16 16 18 19 22 27 26 25 23 24 15 6 4 2
22 23 25 26 33 32 35 30 31 30 34 30 32 32 37 30 24 20 20 21 21 21 26 29 31 29 25 15 22 12 11 3
28 26 31 31 33 34 37 35 33 35 33 33 33 35 38 39 32 29 27 23 24 25 28 30 32 34 31 29 22 11 14 7
32 32 31 34 34 34 36 39 39 39 41 36 35 37 39 44 42 41 37 35 30 30 30 32 31 30 36 37 35 33 25 22
34 33 31 37 38 39 39 42 43 42 41 40 41 40 41 43 44 44 42 38 36 35 34 31 30 33 36 33 37 35 29 25
Wind_Direction
196 187 176 175 181 169 154 159 158 150 146 155 153 150 148 147 144 135 131 131 136 144 137 128 124 119 115 111 110 112 114 114
212 189 174 185 205 197 168 162 162 154 154 157 156 156 154 147 141 138 132 129 134 139 137 133 129 124 118 113 112 112 112 113
167 173 197 175 154 147 151 166 167 158 156 157 158 157 152 146 141 141 135 131 133 137 139 138 132 129 122 116 115 113 114 116
118 126 174 174 144 144 157 167 174 162 158 162 161 159 153 145 141 139 136 132 132 134 139 140 137 137 130 125 118 118 119 124
151 161 157 154 155 151 158 164 172 167 161 168 164 161 157 147 140 140 136 135 133 131 131 133 137 140 137 133 130 126 130 132
158 159 150 157 158 157 159 168 174 180 163 175 168 166 160 155 147 146 141 137 133 133 129 133 137 141 145 139 141 138 138 138
156 162 161 163 163 165 166 172 176 180 171 180 172 171 165 160 153 155 146 145 143 140 133 131 138 149 150 149 151 148 144 145
161 167 168 168 165 168 174 176 175 181 174 181 178 175 171 165 160 157 153 153 147 147 142 138 140 146 155 161 159 152 154 149
174 169 174 166 171 171 173 182 183 178 183 196 182 182 176 171 165 159 156 154 156 153 145 143 144 148 154 165 164 168 161 159
172 182 176 170 173 176 177 180 185 188 200 201 187 184 182 174 169 166 165 159 168 162 153 155 160 163 164 173 177 175 173 177
187 180 184 175 176 183 187 186 191 196 199 189 187 187 184 178 179 175 172 172 177 177 171 177 177 180 186 185 190 195 202 205
193 202 177 180 186 189 184 186 188 193 190 191 187 186 183 183 186 186 180 184 188 190 188 189 198 195 191 198 209 215 218 227
193 188 174 178 186 181 182 186 189 191 192 191 187 179 185 193 195 192 193 199 199 199 194 200 205 203 198 215 228 233 233 234
176 186 182 181 176 174 173 186 187 183 194 185 184 173 188 199 202 205 207 210 209 207 207 208 213 207 190 156 224 246 241 238
185 185 169 166 173 179 179 181 172 184 192 181 184 180 188 196 220 219 216 217 219 216 219 221 214 211 210 195 114 228 202 233
187 186 175 176 180 182 189 179 172 197 204 201 185 188 206 209 216 221 226 232 235 237 235 226 224 219 216 224 232 204 177 241
194 194 185 184 187 186 186 184 195 195 204 218 203 202 211 226 237 242 247 251 254 254 243 234 232 232 220 218 226 221 226 163
194 199 199 196 193 192 192 193 196 202 218 224 224 224 221 231 247 252 256 267 268 264 255 250 244 240 239 233 225 206 207 194
196 199 205 208 208 207 206 209 209 208 215 221 227 235 238 234 244 256 256 257 264 262 259 255 253 243 244 245 245 242 240 227
192 198 202 207 210 213 214 216 217 219 224 227 234 238 241 242 250 251 248 254 264 263 260 255 262 247 252 246 248 247 240 233
Height
767 772 776 782 783 787 785 794 799 799 802 818 824 830 832 832 834 834 835 838 840 843 844 845 851 854 856 856 857 862 863 864
768 771 773 780 782 782 788 790 799 799 804 817 823 830 834 836 836 837 838 840 843 847 847 849 852 856 859 860 861 864 865 867
764 770 773 773 776 783 786 795 800 802 807 815 823 831 837 838 839 839 841 843 846 848 850 852 854 858 861 863 864 866 868 870
768 766 769 772 780 782 792 798 802 804 808 818 823 832 839 839 841 841 842 845 848 850 852 853 855 859 862 866 867 867 870 872
768 768 768 776 783 781 788 794 800 807 809 819 826 833 839 840 841 843 843 846 850 852 853 855 858 861 865 867 870 870 872 873
769 772 772 777 782 786 788 796 802 810 812 821 827 834 837 839 839 845 844 848 851 853 853 858 859 863 867 868 871 872 873 875
770 773 776 779 784 789 792 799 805 810 816 824 827 834 836 839 839 846 844 849 853 854 856 857 860 864 866 868 873 874 875 876
772 775 778 781 785 790 796 801 807 812 818 824 828 833 836 837 840 843 845 850 853 855 856 859 861 863 867 870 873 874 876 876
773 774 778 782 786 790 797 803 808 814 820 823 827 832 835 837 840 843 845 850 853 856 857 859 861 863 867 871 873 875 876 875
772 775 777 783 787 792 798 804 810 815 819 822 826 831 835 837 840 842 846 848 853 855 856 860 862 864 865 869 871 873 874 875
770 773 777 782 788 794 797 802 810 814 817 820 825 830 835 836 840 842 843 846 851 853 855 858 860 863 866 867 868 870 873 873
769 772 774 779 786 793 797 802 809 812 814 819 823 828 832 835 840 843 842 846 849 851 852 856 861 863 865 865 867 869 870 871
768 771 773 776 784 787 792 797 805 809 813 818 822 825 830 836 839 840 843 845 846 849 851 855 858 861 864 865 866 868 869 869
767 770 772 775 779 788 793 796 800 805 813 817 822 822 829 834 835 838 840 842 843 845 848 851 855 857 860 863 865 865 865 866
766 769 771 773 781 785 791 797 801 807 813 816 819 821 827 829 835 836 839 839 840 841 844 846 848 853 856 859 864 862 860 860
767 768 770 771 778 783 789 794 796 803 809 814 815 819 825 828 831 832 833 836 838 839 841 843 845 849 853 852 852 853 856 860
760 764 768 773 779 779 785 792 796 798 804 809 811 816 819 822 824 827 831 831 833 835 838 839 841 844 845 847 850 850 851 851
757 762 767 773 776 778 781 786 789 794 800 802 805 808 812 815 817 822 825 825 828 831 834 835 836 838 840 842 843 842 844 846
753 758 762 767 770 774 778 783 787 788 793 796 799 802 805 807 810 813 816 821 823 827 828 830 830 831 832 834 836 836 837 838
744 751 756 760 765 770 775 780 782 784 787 790 792 796 797 802 806 810 812 816 819 821 822 823 823 824 824 827 828 830 831 833